[Date Prev][Date Next][Thread Prev][Thread Next] - [Date Index][Thread Index][Author Index]
2 Line ISS Keps 5-2
- Subject: [sarex] 2 Line ISS Keps 5-2
- From: "Dave Larsen PhD" <doc@xxxxxxxxxxx>
- Date: Mon, 2 May 2005 03:56:12 -0700
ISS
1 25544U 98067A 05122.15301167 .00013760 00000-0 10877-3 0 3744
2 25544 051.6453 136.6176 0007978 070.9082 333.7019 15.71672765368441
----
Via the sarex mailing list at AMSAT.ORG courtesy of AMSAT-NA.
To unsubscribe, send "unsubscribe sarex" to Majordomo@amsat.org
AMSAT Home